#timestamp,LO_Frequency,Hit,StdDev 
1625637615.6,286047002.4,N
1625637635.4,286046999.8,N
1625637655.2,286046999.8,N
1625637675.1,286047000.2,N
1625637676.0,286047000.2,N
1625637695.8,286047002.3,N
1625637715.7,286047002.8,N
1625637735.5,286047002.2,N
1625637755.3,286047002.4,N
1625637775.2,286047002.7,N
1625637795.0,286047002.8,N
1625637795.9,286047002.8,N
1625637815.8,286046999.7,N
1625637835.6,286047002.8,N
1625637855.4,286046999.7,N
1625637875.3,286046999.7,N
1625637895.1,286047002.3,N
1625637896.0,286047002.3,N
1625637915.8,286047002.3,N
1625637935.7,286047002.4,N
1625637955.5,286047002.7,N
1625637975.3,286047000.2,N
1625637995.2,286047002.8,N
1625638015.0,286047000.0,N
1625638015.9,286047000.0,N
1625638035.8,286046999.9,N
1625638055.6,286047002.7,N
1625638075.4,286047002.7,N
1625638095.3,286046999.7,N
1625638115.1,286047000.1,N
1625638135.8,286046999.7,N
1625638155.7,286046999.8,N
1625638175.5,286046999.8,N
1625638195.4,286047000.1,N
1625638215.2,286046999.8,N
1625638235.0,286046999.8,N
1625638235.9,286046999.8,N
1625638255.8,286046999.8,N
1625638275.6,286047000.1,N
1625638295.4,286047000.1,N
1625638315.3,286047000.2,N
1625638335.1,286047000.2,N
1625638355.9,286046999.8,N
1625638375.7,286047000.4,N
1625638395.5,286047000.4,N
1625638415.4,286046999.7,N
1625638435.2,286047000.5,N
1625638455.0,286046999.9,N
1625638455.9,286046999.9,N
1625638475.8,286047001.0,N
1625638495.6,286047000.2,N
1625638515.5,286046999.9,N
1625638535.3,286047000.3,N
1625638555.1,286047000.6,N
1625638575.9,286047000.8,N
1625638595.7,286047000.5,N
1625638615.5,286047000.9,N
1625638635.4,286047000.6,N
1625638655.2,286047000.6,N
1625638675.1,286047001.2,Y
1625638676.0,286047001.2,P
1625638695.8,286047001.0,N
1625638715.6,286046998.5,P
1625638735.5,286047000.8,N
1625638755.3,286047001.0,N
1625638775.1,286047001.2,N
1625638795.9,286047000.9,N
1625638815.7,286047000.7,N
1625638835.6,286047000.5,N
1625638855.4,286046998.2,N
1625638875.2,286047001.0,N
1625638895.1,286047000.9,N
1625638896.0,286047000.9,N
1625638915.8,286046998.1,N
1625638935.6,286047001.2,N
1625638955.5,286047000.6,N
1625638975.3,286046998.1,N
1625638995.2,286046998.1,N
1625639015.9,286047000.8,N
1625639035.7,286046998.5,N
1625639055.6,286046998.2,N
1625639075.4,286046998.9,N
1625639095.2,286046998.2,N
1625639115.1,286046998.2,N
1625639116.0,286046998.2,N
1625639135.8,286046998.5,N
1625639155.6,286046998.9,N
1625639175.5,286046998.6,N
1625639195.3,286046998.4,N
1625639215.2,286046998.7,N
1625639235.9,286046998.1,N
1625639255.7,286046998.7,N
1625639275.6,286046998.5,N
1625639295.4,286046998.6,N
1625639315.2,286046998.7,N
1625639335.1,286046998.8,N
1625639336.0,286046998.8,N
1625639355.8,286046999.0,N
1625639375.7,286046999.4,N
1625639395.5,286046999.4,N
1625639415.3,286046999.1,N
1625639435.2,286046999.1,N
1625639455.0,286046999.1,N
1625639455.9,286046999.1,N
1625639475.7,286046999.2,N
1625639495.6,286046997.0,Y
1625639515.4,286046998.4,P
1625639535.3,286046998.4,P
1625639555.1,286046998.4,P
1625639575.8,286046998.7,Y
1625639595.7,286047000.9,P
1625639615.5,286047000.1,N
1625639635.4,286047000.9,N
1625639655.2,286047000.7,N
1625639675.0,286047001.0,N
1625639675.9,286047001.0,N
1625639695.8,286047000.7,N
1625639715.6,286047000.7,N
1625639735.4,286047000.9,N
1625639755.3,286047000.9,N
1625639775.1,286047000.9,N
1625639795.9,286047001.0,N
1625639815.7,286047001.0,N
1625639835.5,286047000.9,N
1625639855.4,286047001.0,N
1625639875.2,286047000.5,N
1625639895.0,286047001.2,N
1625639895.9,286047001.2,N
1625639915.8,286047000.6,N
1625639935.6,286047001.2,N
1625639955.5,286046998.1,Y
1625639975.3,286046998.7,P
1625639995.1,286046998.7,N
1625640015.9,286046998.9,N
1625640035.7,286046999.0,N
1625640055.5,286046999.2,N
1625640075.4,286046999.6,N
1625640095.2,286046999.6,N
1625640115.1,286046999.6,N
1625640116.0,286046999.6,N
1625640135.8,286046996.6,Y
1625640155.6,286046999.1,P
1625640175.5,286046998.8,P
1625640195.3,286046999.1,P
1625640215.1,286046998.9,Y
1625640235.9,286047001.1,P
1625640255.7,286047001.1,N
1625640275.6,286046998.5,N
1625640295.4,286047000.7,N
1625640315.2,286046998.3,N
1625640335.1,286046998.7,N
1625640336.0,286046998.7,N
1625640355.8,286046998.8,N
1625640375.6,286046998.3,N
1625640395.5,286046998.5,N
1625640415.3,286046998.9,N
1625640435.2,286046999.0,N
1625640455.9,286046998.2,N
1625640475.7,286046998.8,N
1625640495.6,286046998.5,N
1625640515.4,286046998.5,N
1625640535.2,286046999.0,N
1625640555.1,286046998.3,N
1625640556.0,286046998.3,N
1625640575.8,286046999.5,N
1625640595.6,286046998.9,N
1625640615.5,286046996.9,Y
1625640635.3,286046998.4,P
1625640655.2,286046998.7,P
1625640675.9,286046998.2,P
1625640695.7,286046999.4,N
1625640715.6,286046998.7,Y
1625640735.4,286047000.9,P
1625640755.3,286047001.0,N
1625640775.1,286046998.6,N
1625640776.0,286046998.6,N
1625640795.8,286047001.2,N
1625640815.7,286047000.8,N
1625640835.5,286047001.2,N
1625640855.3,286046998.7,N
1625640875.2,286046998.3,N
1625640895.0,286046998.5,N
1625640895.9,286046998.5,N
1625640915.8,286046999.0,N
1625640935.6,286046999.3,N
1625640955.4,286046998.3,N
1625640975.3,286046998.2,N
1625640995.1,286046998.6,N
1625640996.0,286046998.6,N
1625641015.8,286046998.6,N
1625641035.7,286046998.6,N
1625641055.5,286046998.7,N
1625641075.3,286046999.0,N
1625641095.5,286046998.4,N
1625641115.4,286046999.0,N
1625641135.2,286046999.3,N
1625641155.1,286046999.5,N
1625641156.0,286046999.5,N
1625641175.8,286046999.0,N
1625641195.6,286046999.0,N
